When you browse on this site, cookies collect data to enhance your experience and personalize the content and advertising you see.
Visit our Privacy Policy to learn more. By continuing to use the site, you agree to this use of cookies and data.

Meteo orario Oakland

Oggi, 11 Luglio, Sabato

Tempo Temperatura Precipitazioni Vento Pressione Umidità
00:00 +17°C° 0 mm 2 m/s 758 mm Hg 62%
01:00 +17°C° 0 mm 2 m/s 758 mm Hg 64%
02:00 +16°C° 0 mm 1 m/s 758 mm Hg 65%
03:00 +16°C° 0 mm 1 m/s 758 mm Hg 67%
04:00 +16°C° 0 mm 1 m/s 758 mm Hg 69%
05:00 +18°C° 0 mm 1 m/s 758 mm Hg 64%
06:00 +19°C° 0 mm 1 m/s 759 mm Hg 59%
07:00 +20°C° 0 mm 1 m/s 759 mm Hg 54%
08:00 +23°C° 0 mm 1 m/s 759 mm Hg 47%
09:00 +25°C° 0 mm 2 m/s 759 mm Hg 41%
10:00 +27°C° 0 mm 2 m/s 759 mm Hg 35%
11:00 +29°C° 0 mm 2 m/s 759 mm Hg 32%
12:00 +30°C° 0 mm 3 m/s 759 mm Hg 29%
13:00 +31°C° 0 mm 3 m/s 759 mm Hg 27%
14:00 +30°C° 0 mm 3 m/s 759 mm Hg 28%
15:00 +29°C° 0 mm 4 m/s 758 mm Hg 30%
16:00 +29°C° 0 mm 4 m/s 758 mm Hg 32%
17:00 +27°C° 0 mm 3 m/s 758 mm Hg 36%
18:00 +25°C° 0 mm 3 m/s 758 mm Hg 41%
19:00 +22°C° 0 mm 3 m/s 758 mm Hg 45%
20:00 +21°C° 0 mm 2 m/s 758 mm Hg 49%
21:00 +20°C° 0 mm 2 m/s 758 mm Hg 52%
22:00 +18°C° 0 mm 2 m/s 758 mm Hg 56%
23:00 +18°C° 0 mm 2 m/s 758 mm Hg 58%

Domani, 12 Luglio, Domenica

Tempo Temperatura Precipitazioni Vento Pressione Umidità
00:00 +18°C° 0 mm 2 m/s 758 mm Hg 59%
01:00 +17°C° 0 mm 2 m/s 757 mm Hg 61%
02:00 +17°C° 0 mm 2 m/s 757 mm Hg 63%
03:00 +18°C° 0 mm 1 m/s 757 mm Hg 66%
04:00 +16°C° 0 mm 1 m/s 757 mm Hg 68%
05:00 +18°C° 0 mm 1 m/s 757 mm Hg 64%
06:00 +19°C° 0 mm 1 m/s 757 mm Hg 59%
07:00 +20°C° 0 mm 1 m/s 757 mm Hg 55%
08:00 +23°C° 0 mm 1 m/s 757 mm Hg 48%
09:00 +25°C° 0 mm 1 m/s 757 mm Hg 41%
10:00 +27°C° 0 mm 2 m/s 757 mm Hg 35%
11:00 +28°C° 0 mm 2 m/s 757 mm Hg 32%
12:00 +29°C° 0 mm 3 m/s 756 mm Hg 30%
13:00 +30°C° 0 mm 4 m/s 756 mm Hg 28%
14:00 +30°C° 0 mm 4 m/s 755 mm Hg 30%
15:00 +29°C° 0 mm 4 m/s 755 mm Hg 32%
16:00 +28°C° 0 mm 4 m/s 754 mm Hg 34%
17:00 +26°C° 0 mm 4 m/s 754 mm Hg 42%
18:00 +23°C° 0 mm 4 m/s 755 mm Hg 49%
19:00 +21°C° 0 mm 3 m/s 755 mm Hg 57%
20:00 +20°C° 0 mm 3 m/s 755 mm Hg 62%
21:00 +19°C° 0 mm 3 m/s 755 mm Hg 68%
22:00 +17°C° 0 mm 3 m/s 755 mm Hg 73%
23:00 +17°C° 0 mm 3 m/s 755 mm Hg 76%

Dopodomani, 13 Luglio, Lunedi

Tempo Temperatura Precipitazioni Vento Pressione Umidità
00:00 +17°C° 0 mm 3 m/s 755 mm Hg 78%
01:00 +16°C° 0 mm 3 m/s 755 mm Hg 80%
02:00 +16°C° 0 mm 3 m/s 755 mm Hg 82%
03:00 +14°C° 0 mm 3 m/s 755 mm Hg 84%
04:00 +14°C° 0 mm 3 m/s 755 mm Hg 85%
05:00 +14°C° 0 mm 3 m/s 755 mm Hg 84%
06:00 +16°C° 0 mm 3 m/s 755 mm Hg 82%
07:00 +16°C° 0 mm 3 m/s 755 mm Hg 80%
08:00 +18°C° 0 mm 3 m/s 755 mm Hg 73%
09:00 +19°C° 0 mm 3 m/s 756 mm Hg 66%
10:00 +21°C° 0 mm 3 m/s 756 mm Hg 59%
11:00 +22°C° 0 mm 3 m/s 755 mm Hg 56%
12:00 +23°C° 0 mm 4 m/s 755 mm Hg 53%
13:00 +25°C° 0 mm 4 m/s 755 mm Hg 50%
14:00 +25°C° 0 mm 4 m/s 755 mm Hg 52%
15:00 +23°C° 0 mm 4 m/s 755 mm Hg 53%
16:00 +22°C° 0 mm 5 m/s 754 mm Hg 55%
17:00 +21°C° 0 mm 4 m/s 755 mm Hg 60%
18:00 +19°C° 0 mm 4 m/s 755 mm Hg 66%
19:00 +18°C° 0 mm 4 m/s 755 mm Hg 71%
20:00 +17°C° 0 mm 3 m/s 755 mm Hg 74%
21:00 +16°C° 0 mm 3 m/s 755 mm Hg 78%
22:00 +14°C° 0 mm 3 m/s 756 mm Hg 82%
23:00 +14°C° 0 mm 3 m/s 756 mm Hg 83%

14 Luglio, Martedi

Tempo Temperatura Precipitazioni Vento Pressione Umidità
00:00 +14°C° 0 mm 3 m/s 755 mm Hg 84%
01:00 +13°C° 0 mm 3 m/s 755 mm Hg 85%
02:00 +14°C° 0 mm 2 m/s 755 mm Hg 85%
03:00 +14°C° 0 mm 2 m/s 755 mm Hg 86%
04:00 +14°C° 0 mm 2 m/s 755 mm Hg 87%
05:00 +15°C° 0 mm 2 m/s 755 mm Hg 82%
06:00 +15°C° 0 mm 2 m/s 756 mm Hg 78%
07:00 +16°C° 0 mm 2 m/s 756 mm Hg 74%
08:00 +18°C° 0 mm 2 m/s 756 mm Hg 65%
09:00 +21°C° 0 mm 2 m/s 756 mm Hg 57%
10:00 +24°C° 0 mm 2 m/s 756 mm Hg 48%
11:00 +25°C° 0 mm 3 m/s 756 mm Hg 47%
12:00 +26°C° 0 mm 4 m/s 756 mm Hg 45%
13:00 +27°C° 0 mm 4 m/s 756 mm Hg 44%
14:00 +26°C° 0 mm 4 m/s 755 mm Hg 45%
15:00 +26°C° 0 mm 5 m/s 755 mm Hg 47%
16:00 +25°C° 0 mm 5 m/s 755 mm Hg 49%
17:00 +23°C° 0 mm 4 m/s 755 mm Hg 55%
18:00 +21°C° 0 mm 4 m/s 755 mm Hg 61%
19:00 +19°C° 0 mm 4 m/s 755 mm Hg 67%
20:00 +18°C° 0 mm 3 m/s 755 mm Hg 72%
21:00 +17°C° 0 mm 3 m/s 756 mm Hg 77%
22:00 +16°C° 0 mm 2 m/s 756 mm Hg 82%
23:00 +15°C° 0 mm 2 m/s 756 mm Hg 83%

15 Luglio, Mercoledi

Tempo Temperatura Precipitazioni Vento Pressione Umidità
00:00 +15°C° 0 mm 2 m/s 755 mm Hg 84%
01:00 +15°C° 0 mm 2 m/s 755 mm Hg 85%
02:00 +15°C° 0 mm 2 m/s 755 mm Hg 86%
03:00 +14°C° 0 mm 2 m/s 755 mm Hg 87%
04:00 +14°C° 0 mm 1 m/s 755 mm Hg 87%
05:00 +15°C° 0 mm 1 m/s 755 mm Hg 83%
06:00 +16°C° 0 mm 1 m/s 755 mm Hg 78%
07:00 +18°C° 0 mm 1 m/s 755 mm Hg 73%
08:00 +20°C° 0 mm 1 m/s 755 mm Hg 65%
09:00 +23°C° 0 mm 2 m/s 755 mm Hg 56%
10:00 +25°C° 0 mm 2 m/s 755 mm Hg 48%
11:00 +26°C° 0 mm 3 m/s 755 mm Hg 46%
12:00 +26°C° 0 mm 4 m/s 754 mm Hg 45%
13:00 +27°C° 0 mm 4 m/s 754 mm Hg 43%
14:00 +26°C° 0 mm 4 m/s 754 mm Hg 45%
15:00 +26°C° 0 mm 4 m/s 753 mm Hg 46%
16:00 +25°C° 0 mm 5 m/s 753 mm Hg 48%
17:00 +22°C° 0 mm 4 m/s 753 mm Hg 54%
18:00 +20°C° 0 mm 4 m/s 753 mm Hg 60%
19:00 +19°C° 0 mm 4 m/s 753 mm Hg 66%
20:00 +18°C° 0 mm 3 m/s 754 mm Hg 69%
21:00 +17°C° 0 mm 3 m/s 754 mm Hg 73%
22:00 +16°C° 0 mm 2 m/s 754 mm Hg 76%
23:00 +16°C° 0 mm 2 m/s 754 mm Hg 77%

16 Luglio, Giovedi

Tempo Temperatura Precipitazioni Vento Pressione Umidità
00:00 +16°C° 0 mm 2 m/s 754 mm Hg 78%
01:00 +16°C° 0 mm 2 m/s 754 mm Hg 80%
02:00 +15°C° 0 mm 2 m/s 754 mm Hg 81%
03:00 +15°C° 0 mm 2 m/s 753 mm Hg 83%
04:00 +15°C° 0 mm 2 m/s 753 mm Hg 85%
05:00 +16°C° 0 mm 2 m/s 754 mm Hg 81%
06:00 +17°C° 0 mm 2 m/s 754 mm Hg 78%
07:00 +17°C° 0 mm 2 m/s 754 mm Hg 74%
08:00 +19°C° 0 mm 2 m/s 754 mm Hg 66%
09:00 +21°C° 0 mm 2 m/s 755 mm Hg 58%
10:00 +24°C° 0 mm 3 m/s 755 mm Hg 50%
11:00 +25°C° 0 mm 4 m/s 754 mm Hg 49%
12:00 +26°C° 0 mm 4 m/s 754 mm Hg 48%
13:00 +26°C° 0 mm 5 m/s 754 mm Hg 46%
14:00 +26°C° 0 mm 5 m/s 754 mm Hg 47%
15:00 +25°C° 0 mm 5 m/s 754 mm Hg 48%
16:00 +23°C° 0 mm 5 m/s 754 mm Hg 49%
17:00 +22°C° 0 mm 4 m/s 754 mm Hg 55%
18:00 +20°C° 0 mm 4 m/s 754 mm Hg 61%
19:00 +19°C° 0 mm 3 m/s 754 mm Hg 67%
20:00 +18°C° 0 mm 3 m/s 754 mm Hg 71%
21:00 +17°C° 0 mm 3 m/s 755 mm Hg 75%
22:00 +16°C° 0 mm 2 m/s 755 mm Hg 80%
23:00 +16°C° 0 mm 2 m/s 755 mm Hg 81%
Mostrare altro